FW7734 Weather Reports


time (UTC)temp
F
wind
direction
speed
knots
gust
knots
rain 1hr
in
rain 24hr
in
rain mn
in
humidity
%
barometer
mb
20260504120116 46 102 2.6 2.6 0.00 0.00 0.00 69 1013.3
20260504110543 32 55 0.0 0.0 0.00 0.00 0.00 99 1013.5
20260504100505 31 54 0.9 0.9 0.00 0.00 0.00 98 1013.4
20260504081858 32 55 0.9 0.9 0.00 0.00 0.00 97 1013.5
20260504081354 32 55 0.0 0.9 0.00 0.00 0.00 97 1013.4
20260504080850 32 55 0.9 0.9 0.00 0.00 0.00 97 1013.5
20260504080348 32 55 0.0 0.9 0.00 0.00 0.00 97 1013.4
20260504070315 33 55 0.0 0.0 0.00 0.00 0.00 96 1013.2
20260504060235 34 55 1.7 1.7 0.00 0.00 0.00 95 1013.4
20260504050703 35 53 0.9 1.7 0.00 0.00 0.00 94 1013.3
20260504050200 35 55 0.9 0.9 0.00 0.00 0.00 94 1013.2
20260504045657 35 55 0.9 0.9 0.00 0.00 0.00 94 1013.4
20260504045152 36 56 0.9 1.7 0.00 0.00 0.00 94 1013.4
20260504044650 36 56 0.9 0.9 0.00 0.00 0.00 94 1013.2
20260504044147 36 56 0.0 0.9 0.00 0.00 0.00 94 1013.4
20260504043644 36 56 0.9 0.9 0.00 0.00 0.00 94 1013.2
20260504043141 36 56 0.9 1.7 0.00 0.00 0.00 94 1013.3
20260504042638 36 56 0.9 0.9 0.00 0.00 0.00 93 1013.2
20260504042135 37 56 0.9 0.9 0.00 0.00 0.00 93 1013.2
20260504041630 37 55 0.9 0.9 0.00 0.00 0.00 93 1013.4
20260504041127 37 55 0.9 0.9 0.00 0.00 0.00 93 1013.1
20260504040624 37 55 0.0 0.0 0.00 0.00 0.00 93 1013.2
20260504040121 38 56 0.9 0.9 0.00 0.00 0.00 93 1013.1
20260504035618 38 56 0.0 0.0 0.00 0.00 0.00 93 1013.3
20260504035114 38 56 0.0 0.9 0.00 0.00 0.00 92 1013.3
20260504034612 38 56 0.0 1.7 0.00 0.00 0.00 92 1012.9
20260504034109 38 56 0.0 0.9 0.00 0.00 0.00 92 1013.0
20260504033607 39 56 0.9 2.6 0.00 0.00 0.00 92 1013.1
20260504033103 39 55 0.9 0.9 0.00 0.00 0.00 91 1013.1
20260504032600 39 55 0.9 0.9 0.00 0.00 0.00 91 1013.0
20260504032057 40 55 0.9 0.9 0.00 0.00 0.00 90 1013.0
20260504031554 40 55 0.9 1.7 0.00 0.00 0.00 90 1013.0
20260504031050 40 55 0.0 0.0 0.00 0.00 0.00 90 1013.2
20260504030548 41 55 1.7 2.6 0.00 0.00 0.00 89 1012.8
20260504030044 41 56 0.9 1.7 0.00 0.00 0.00 89 1013.1
20260504025541 41 55 0.9 1.7 0.00 0.00 0.00 88 1013.2
20260504025038 41 55 1.7 1.7 0.00 0.00 0.00 88 1013.1
20260504024535 41 50 2.6 2.6 0.00 0.00 0.00 88 1013.2
20260504024032 41 56 0.9 0.9 0.00 0.00 0.00 88 1013.3
20260504023528 42 56 0.9 0.9 0.00 0.00 0.00 88 1013.2
20260504023024 42 56 1.7 2.6 0.00 0.00 0.00 87 1013.1
20260504022520 42 56 1.7 2.6 0.00 0.00 0.00 87 1013.1
20260504022017 42 56 0.0 0.9 0.00 0.00 0.00 86 1013.1
20260504021515 43 56 0.0 0.0 0.00 0.00 0.00 85 1013.1
20260504021012 43 56 0.0 0.0 0.00 0.00 0.00 84 1012.8
20260504020508 43 56 0.0 0.0 0.00 0.00 0.00 84 1013.1
20260504020005 43 56 0.9 0.9 0.00 0.00 0.00 84 1013.0
20260504015501 43 56 2.6 2.6 0.00 0.00 0.00 83 1013.0
20260504014957 43 56 0.0 0.9 0.00 0.00 0.00 82 1012.8
20260504014453 43 56 0.9 0.9 0.00 0.00 0.00 83 1012.9
20260504013950 43 56 0.9 0.9 0.00 0.00 0.00 82 1013.1
20260504013449 43 56 0.0 0.0 0.00 0.00 0.00 81 1013.0
20260504012944 43 56 0.9 0.9 0.00 0.00 0.00 81 1012.8
20260504012443 43 56 1.7 1.7 0.00 0.00 0.00 81 1012.8
20260504011940 43 56 0.9 1.7 0.00 0.00 0.00 81 1012.8
20260504011436 43 56 0.0 0.0 0.00 0.00 0.00 81 1012.6
20260504010932 43 56 0.9 0.9 0.00 0.00 0.00 81 1012.7
20260504010428 44 56 0.9 1.7 0.00 0.00 0.00 81 1012.5
20260504005925 44 55 0.9 1.7 0.00 0.00 0.00 79 1012.6
20260504005421 44 55 0.9 0.9 0.00 0.00 0.00 78 1012.5
20260504004919 44 56 0.9 0.9 0.00 0.00 0.00 76 1012.4
20260504004417 44 57 1.7 1.7 0.00 0.00 0.00 75 1012.5
20260504003913 45 57 0.0 0.0 0.00 0.00 0.00 73 1012.8
20260504003410 44 57 0.9 1.7 0.00 0.00 0.00 74 1012.5
20260504002906 45 57 0.9 1.7 0.00 0.00 0.00 73 1012.5
20260504002403 45 56 0.9 4.3 0.00 0.00 0.00 72 1012.4
20260504001901 46 57 0.9 1.7 0.00 0.00 0.00 72 1011.9
20260504001358 46 56 1.7 1.7 0.00 0.00 0.00 71 1012.0
20260504000855 47 57 0.9 2.6 0.00 0.00 0.00 70 1012.2
20260504000354 48 56 0.9 1.7 0.00 0.00 0.00 68 1011.8
20260503235849 49 56 0.0 0.0 0.00 0.00 0.00 67 1011.8
20260503235347 49 56 0.0 0.0 0.00 0.00 0.00 62 1011.9
20260503234844 51 56 0.0 0.0 0.00 0.00 0.00 63 1012.0
20260503234342 51 57 0.9 4.3 0.00 0.00 0.00 59 1012.0
20260503233839 53 43 0.9 1.7 0.00 0.00 0.00 58 1012.1
20260503233335 53 58 1.7 1.7 0.00 0.00 0.00 50 1011.8
20260503232832 53 61 1.7 1.7 0.00 0.00 0.00 48 1012.0
20260503232329 53 61 0.9 4.3 0.00 0.00 0.00 51 1012.0
20260503231827 53 12 1.7 1.7 0.00 0.00 0.00 48 1012.1
20260503231324 53 91 2.6 4.3 0.00 0.00 0.00 49 1011.9
20260503230820 53 309 1.7 1.7 0.00 0.00 0.00 48 1011.9
20260503230317 53 59 0.9 2.6 0.00 0.00 0.00 49 1011.8
20260503225815 53 99 1.7 1.7 0.00 0.00 0.00 50 1011.8
20260503225310 54 50 0.9 1.7 0.00 0.00 0.00 48 1011.8
20260503224807 54 254 2.6 2.6 0.00 0.00 0.00 49 1011.9
20260503224304 54 1 2.6 2.6 0.00 0.00 0.00 46 1011.9
20260503223802 55 248 5.2 7.8 0.00 0.00 0.00 45 1012.1
20260503223259 55 47 0.9 1.7 0.00 0.00 0.00 44 1011.9
20260503222755 55 6 3.5 6.1 0.00 0.00 0.00 46 1011.9
20260503222253 55 343 7.8 9.6 0.00 0.00 0.00 44 1012.1
20260503221751 56 199 3.5 4.3 0.00 0.00 0.00 44 1011.8
20260503221249 56 69 0.9 1.7 0.00 0.00 0.00 45 1011.9
20260503220745 55 216 1.7 1.7 0.00 0.00 0.00 44 1012.1
20260503220242 55 18 0.9 0.9 0.00 0.00 0.00 46 1011.9
20260503215739 56 16 1.7 4.3 0.00 0.00 0.00 46 1012.0
20260503215236 55 323 4.3 7.0 0.00 0.00 0.00 46 1012.0
20260503214734 55 11 6.1 8.7 0.00 0.00 0.00 47 1012.0
20260503214231 54 340 1.7 2.6 0.00 0.00 0.00 47 1011.9
20260503213729 55 321 3.5 4.3 0.00 0.00 0.00 46 1011.9
20260503213226 54 335 7.8 9.6 0.00 0.00 0.00 46 1012.0
20260503212722 54 301 3.5 4.3 0.00 0.00 0.00 48 1012.0
20260503212220 55 311 7.0 8.7 0.00 0.00 0.00 45 1011.8
20260503211718 55 25 10.4 13.0 0.00 0.00 0.00 45 1011.8
20260503211214 54 318 4.3 7.8 0.00 0.00 0.00 46 1011.9
20260503210710 54 288 4.3 6.1 0.00 0.00 0.00 46 1011.9
20260503210207 53 327 6.1 7.0 0.00 0.00 0.00 46 1012.2
20260503205702 53 11 6.1 9.6 0.00 0.00 0.00 46 1011.9
20260503205158 54 286 10.4 13.9 0.00 0.00 0.00 45 1012.0
20260503204655 54 190 3.5 7.8 0.00 0.00 0.00 43 1012.0
20260503204153 53 277 7.0 9.6 0.00 0.00 0.00 43 1012.2
20260503203649 53 322 7.0 8.7 0.00 0.00 0.00 42 1012.1
20260503203147 54 323 8.7 8.7 0.00 0.00 0.00 41 1011.9
20260503202644 55 345 10.4 13.0 0.00 0.00 0.00 40 1011.7
20260503202142 56 273 4.3 6.1 0.00 0.00 0.00 42 1011.6
20260503201640 55 325 6.1 11.3 0.00 0.00 0.00 40 1011.6
20260503201137 55 357 10.4 13.0 0.00 0.00 0.00 40 1011.7
20260503200633 54 315 7.8 8.7 0.00 0.00 0.00 40 1011.7
20260503200130 55 40 6.1 7.8 0.00 0.00 0.00 41 1011.8
20260503195627 54 280 3.5 7.0 0.00 0.00 0.00 40 1011.8
20260503195124 55 39 3.5 4.3 0.00 0.00 0.00 38 1011.8
20260503194621 55 353 5.2 6.1 0.00 0.00 0.00 40 1011.7
20260503194116 54 332 6.1 7.0 0.00 0.00 0.00 40 1012.0
20260503193613 54 334 3.5 5.2 0.00 0.00 0.00 39 1011.9
20260503193108 53 66 0.9 1.7 0.00 0.00 0.00 38 1012.2
20260503192604 53 307 5.2 6.1 0.00 0.00 0.00 40 1012.3
20260503192100 53 342 5.2 7.0 0.00 0.00 0.00 42 1012.3
20260503191557 54 358 4.3 6.1 0.00 0.00 0.00 40 1012.1
20260503191054 53 335 4.3 6.1 0.00 0.00 0.00 40 1012.4
20260503190551 53 4 3.5 4.3 0.00 0.00 0.00 41 1012.4
20260503190048 53 340 4.3 9.6 0.00 0.00 0.00 46 1012.4
20260503185545 53 325 10.4 12.2 0.00 0.00 0.00 41 1012.6
20260503185044 52 313 3.5 5.2 0.00 0.00 0.00 43 1012.7
20260503184540 54 341 6.1 7.8 0.00 0.00 0.00 41 1012.8
20260503184037 52 327 7.8 11.3 0.00 0.00 0.00 39 1012.9
20260503183534 52 335 6.1 8.7 0.00 0.00 0.00 42 1012.9
20260503183031 53 358 7.0 7.8 0.00 0.00 0.00 39 1013.0
20260503182529 53 14 6.1 11.3 0.00 0.00 0.00 45 1013.2
20260503182027 53 3 7.8 11.3 0.00 0.00 0.00 42 1013.4
20260503181524 52 22 7.8 12.2 0.00 0.00 0.00 42 1013.1
20260503181020 52 321 2.6 4.3 0.00 0.00 0.00 43 1013.2
20260503180518 51 346 9.6 11.3 0.00 0.00 0.00 42 1013.3
20260503180015 50 3 6.1 7.0 0.00 0.00 0.00 42 1013.3
20260503175512 49 10 2.6 4.3 0.00 0.00 0.00 44 1013.1
20260503175009 49 358 3.5 5.2 0.00 0.00 0.00 44 1013.5
20260503174507 50 306 6.1 7.0 0.00 0.00 0.00 43 1013.6
20260503174002 49 12 4.3 4.3 0.00 0.00 0.00 43 1013.6
20260503173457 50 345 2.6 7.8 0.00 0.00 0.00 45 1013.4
20260503172954 51 343 7.0 11.3 0.00 0.00 0.00 44 1013.6
20260503172452 50 336 1.7 2.6 0.00 0.00 0.00 45 1013.3
20260503171948 50 34 7.8 8.7 0.00 0.00 0.00 44 1013.7
20260503171445 49 172 5.2 8.7 0.00 0.00 0.00 45 1013.7
20260503170943 49 307 6.1 11.3 0.00 0.00 0.00 42 1013.4
20260503170438 50 80 2.6 5.2 0.00 0.00 0.00 43 1013.9
20260503150831 45 356 5.2 7.0 0.00 0.00 0.00 49 1014.5
20260503150327 47 307 1.7 2.6 0.00 0.00 0.00 52 1014.6
20260503140251 42 33 3.5 5.2 0.00 0.00 0.00 55 1014.6
20260503131221 41 256 2.6 4.3 0.00 0.00 0.00 66 1014.8
20260503130719 41 345 4.3 5.2 0.00 0.00 0.00 68 1014.8
20260503130216 41 348 6.1 8.7 0.00 0.00 0.00 68 1014.8